TimeEST,TemperatureF,Dew PointF,Humidity,Sea Level PressureIn,VisibilityMPH,Wind Direction,Wind SpeedMPH,Gust SpeedMPH,PrecipitationIn,Events,Conditions,WindDirDegrees,DateUTC
12:05 AM,50.0,48.2,94,29.88,0.5,Calm,Calm,-,0.00,Fog-Rain,Light Rain,0,2012-12-08 05:05:00
12:16 AM,48.2,48.2,100,29.88,0.5,Calm,Calm,-,0.00,Fog,Fog,0,2012-12-08 05:16:00
12:53 AM,48.9,48.9,100,29.86,1.0,Calm,Calm,-,0.00,,Overcast,0,2012-12-08 05:53:00
1:01 AM,50.0,48.2,94,29.87,3.0,Calm,Calm,-,N/A,,Overcast,0,2012-12-08 06:01:00
1:08 AM,50.0,48.2,94,29.87,1.8,Calm,Calm,-,N/A,,Overcast,0,2012-12-08 06:08:00
1:18 AM,50.0,48.2,94,29.87,3.0,Calm,Calm,-,N/A,,Overcast,0,2012-12-08 06:18:00
1:53 AM,50.0,48.9,96,29.87,8.0,SSW,4.6,-,0.01,Rain,Light Rain,210,2012-12-08 06:53:00
2:50 AM,51.8,48.2,88,29.88,10.0,Calm,Calm,-,0.00,Rain,Light Rain,0,2012-12-08 07:50:00
2:53 AM,51.1,48.9,92,29.87,10.0,Calm,Calm,-,0.00,Rain,Light Rain,0,2012-12-08 07:53:00
3:53 AM,52.0,50.0,93,29.87,10.0,Calm,Calm,-,0.02,,Overcast,0,2012-12-08 08:53:00
4:53 AM,53.1,50.0,89,29.87,10.0,SSW,5.8,-,0.00,Rain,Light Rain,200,2012-12-08 09:53:00
5:43 AM,53.6,50.0,88,29.89,10.0,WSW,6.9,-,0.00,,Overcast,240,2012-12-08 10:43:00
6:01 AM,53.6,50.0,88,29.89,10.0,SW,4.6,-,N/A,,Overcast,230,2012-12-08 11:01:00
6:53 AM,54.0,51.1,90,29.88,10.0,SSW,4.6,-,N/A,,Overcast,210,2012-12-08 11:53:00
7:53 AM,53.1,51.1,93,29.89,10.0,SSW,4.6,-,0.01,Rain,Light Rain,210,2012-12-08 12:53:00
8:05 AM,53.6,51.8,94,29.90,8.0,SSW,5.8,-,0.00,,Overcast,210,2012-12-08 13:05:00
8:19 AM,53.6,51.8,94,29.91,1.0,SW,5.8,-,0.02,Rain,Rain,230,2012-12-08 13:19:00
8:34 AM,53.6,51.8,94,29.91,1.0,SW,3.5,-,0.03,Rain,Light Rain,220,2012-12-08 13:34:00
8:53 AM,53.1,52.0,96,29.90,1.0,SW,5.8,-,0.05,Rain,Light Rain,220,2012-12-08 13:53:00
8:55 AM,53.6,51.8,94,29.91,3.0,SSW,5.8,-,0.00,Rain,Light Rain,210,2012-12-08 13:55:00
9:43 AM,53.6,51.8,94,29.92,8.0,SSW,4.6,-,0.00,,Overcast,200,2012-12-08 14:43:00
9:53 AM,53.1,52.0,96,29.91,7.0,SSW,4.6,-,0.00,,Overcast,200,2012-12-08 14:53:00
10:45 AM,55.4,53.6,94,29.92,10.0,SSW,3.5,-,0.01,,Overcast,200,2012-12-08 15:45:00
10:53 AM,55.0,53.1,93,29.90,10.0,SSW,3.5,-,0.01,,Overcast,210,2012-12-08 15:53:00
11:53 AM,57.0,55.0,93,29.87,8.0,SSW,3.5,-,0.00,Rain,Light Rain,200,2012-12-08 16:53:00
12:53 PM,57.0,54.0,89,29.86,10.0,SSW,9.2,-,0.00,Rain,Light Rain,200,2012-12-08 17:53:00
1:53 PM,57.9,53.1,84,29.85,10.0,SW,10.4,-,0.00,,Overcast,220,2012-12-08 18:53:00
2:36 PM,59.0,53.6,82,29.88,10.0,WSW,11.5,-,N/A,,Overcast,240,2012-12-08 19:36:00
2:53 PM,57.9,53.1,84,29.86,10.0,SW,11.5,-,N/A,,Overcast,230,2012-12-08 19:53:00
3:05 PM,57.2,53.6,88,29.88,8.0,SW,10.4,-,0.00,Rain,Light Rain,220,2012-12-08 20:05:00
3:25 PM,57.2,53.6,88,29.89,8.0,SW,10.4,-,0.00,Rain,Light Rain,220,2012-12-08 20:25:00
3:40 PM,57.2,53.6,88,29.90,8.0,SW,6.9,-,0.00,Rain,Light Rain,230,2012-12-08 20:40:00
3:53 PM,57.0,54.0,89,29.88,10.0,SSW,5.8,-,0.00,,Overcast,210,2012-12-08 20:53:00
4:28 PM,55.4,53.6,94,29.91,2.5,WSW,4.6,-,0.05,Rain,Heavy Rain,250,2012-12-08 21:28:00
4:53 PM,55.9,54.0,93,29.90,2.0,SW,6.9,-,0.24,Rain,Light Rain,230,2012-12-08 21:53:00
5:00 PM,55.4,53.6,94,29.92,4.0,WSW,5.8,-,0.00,Rain,Light Rain,240,2012-12-08 22:00:00
5:14 PM,55.4,53.6,94,29.92,2.0,WSW,4.6,-,0.00,Rain,Light Rain,240,2012-12-08 22:14:00
5:53 PM,55.0,54.0,96,29.92,2.0,Calm,Calm,-,0.01,,Overcast,0,2012-12-08 22:53:00
6:00 PM,55.4,53.6,94,29.93,9.0,WSW,3.5,-,N/A,,Overcast,240,2012-12-08 23:00:00
6:15 PM,55.4,53.6,94,29.95,7.0,WNW,4.6,-,N/A,,Overcast,290,2012-12-08 23:15:00
6:38 PM,55.4,51.8,88,29.96,10.0,NW,5.8,-,N/A,,Overcast,310,2012-12-08 23:38:00
6:53 PM,55.0,52.0,89,29.95,10.0,NNW,4.6,-,N/A,,Overcast,330,2012-12-08 23:53:00
7:53 PM,54.0,51.1,90,29.98,10.0,Calm,Calm,-,N/A,,Overcast,0,2012-12-09 00:53:00
8:23 PM,53.6,50.0,88,30.00,10.0,NW,4.6,-,N/A,,Overcast,320,2012-12-09 01:23:00
8:34 PM,53.6,50.0,88,30.00,9.0,NNW,3.5,-,N/A,,Overcast,340,2012-12-09 01:34:00
8:53 PM,53.1,50.0,89,29.99,10.0,North,3.5,-,N/A,,Overcast,350,2012-12-09 01:53:00
9:18 PM,53.6,51.8,94,30.01,9.0,Calm,Calm,-,N/A,,Overcast,0,2012-12-09 02:18:00
9:53 PM,53.1,48.9,86,30.01,10.0,North,3.5,-,N/A,,Overcast,350,2012-12-09 02:53:00
10:53 PM,52.0,48.0,86,30.02,10.0,North,4.6,-,N/A,,Overcast,360,2012-12-09 03:53:00
11:53 PM,52.0,48.0,86,30.02,10.0,Calm,Calm,-,N/A,,Overcast,0,2012-12-09 04:53:00